TimeEST,TemperatureF,Dew PointF,Humidity,Sea Level PressureIn,VisibilityMPH,Wind Direction,Wind SpeedMPH,Gust SpeedMPH,PrecipitationIn,Events,Conditions,WindDirDegrees,DateUTC
12:53 AM,69.1,64.9,87,30.21,10.0,ESE,3.5,-,N/A,,Clear,110,2012-02-29 05:53:00
1:53 AM,69.1,64.9,87,30.21,10.0,Calm,Calm,-,N/A,,Clear,0,2012-02-29 06:53:00
2:53 AM,66.9,64.0,90,30.19,10.0,Calm,Calm,-,N/A,,Clear,0,2012-02-29 07:53:00
3:53 AM,66.9,64.0,90,30.18,8.0,Calm,Calm,-,N/A,,Clear,0,2012-02-29 08:53:00
4:53 AM,66.9,64.9,93,30.18,7.0,Calm,Calm,-,N/A,,Clear,0,2012-02-29 09:53:00
5:14 AM,66.2,64.4,94,30.17,5.0,East,3.5,-,N/A,,Scattered Clouds,80,2012-02-29 10:14:00
5:22 AM,66.2,64.4,94,30.17,2.5,East,5.8,-,N/A,,Mostly Cloudy,80,2012-02-29 10:22:00
5:53 AM,66.9,64.9,93,30.18,1.8,East,3.5,-,N/A,,Overcast,80,2012-02-29 10:53:00
6:07 AM,66.2,64.4,94,30.18,3.0,East,3.5,-,N/A,,Overcast,80,2012-02-29 11:07:00
6:53 AM,66.9,64.9,93,30.19,3.0,East,3.5,-,N/A,,Overcast,100,2012-02-29 11:53:00
7:01 AM,66.2,64.4,94,30.19,2.5,East,3.5,-,N/A,,Overcast,100,2012-02-29 12:01:00
7:51 AM,69.8,66.2,88,30.19,3.0,East,4.6,-,N/A,,Mostly Cloudy,100,2012-02-29 12:51:00
7:53 AM,69.1,66.9,93,30.20,3.0,East,4.6,-,N/A,,Mostly Cloudy,100,2012-02-29 12:53:00
8:25 AM,71.6,66.2,83,30.19,8.0,East,5.8,-,N/A,,Scattered Clouds,90,2012-02-29 13:25:00
8:53 AM,73.0,68.0,84,30.20,10.0,ESE,5.8,-,N/A,,Clear,120,2012-02-29 13:53:00
9:53 AM,78.1,68.0,71,30.22,10.0,SE,8.1,-,N/A,,Scattered Clouds,140,2012-02-29 14:53:00
10:02 AM,78.8,66.2,65,30.21,10.0,SE,8.1,-,N/A,,Mostly Cloudy,140,2012-02-29 15:02:00
10:25 AM,78.8,66.2,65,30.21,10.0,ESE,6.9,-,N/A,,Scattered Clouds,120,2012-02-29 15:25:00
10:53 AM,81.0,66.0,60,30.22,10.0,SSE,8.1,-,N/A,,Partly Cloudy,160,2012-02-29 15:53:00
11:53 AM,82.9,64.0,53,30.21,10.0,ESE,8.1,16.1,N/A,,Mostly Cloudy,120,2012-02-29 16:53:00
12:53 PM,84.9,62.1,46,30.17,10.0,SE,8.1,-,N/A,,Partly Cloudy,130,2012-02-29 17:53:00
1:53 PM,86.0,64.0,48,30.13,10.0,Variable,5.8,-,N/A,,Mostly Cloudy,0,2012-02-29 18:53:00
2:53 PM,84.9,66.0,53,30.10,10.0,SW,10.4,-,N/A,,Partly Cloudy,230,2012-02-29 19:53:00
3:53 PM,82.9,64.0,53,30.10,10.0,SW,10.4,-,N/A,,Clear,230,2012-02-29 20:53:00
4:53 PM,82.0,63.0,52,30.10,10.0,SSW,9.2,-,N/A,,Clear,200,2012-02-29 21:53:00
5:53 PM,80.1,63.0,56,30.10,10.0,SW,6.9,-,N/A,,Clear,230,2012-02-29 22:53:00
6:53 PM,77.0,66.0,69,30.12,10.0,WSW,6.9,-,N/A,,Partly Cloudy,240,2012-02-29 23:53:00
7:53 PM,75.9,64.9,69,30.13,10.0,SW,4.6,-,N/A,,Mostly Cloudy,230,2012-03-01 00:53:00
8:53 PM,75.0,66.0,73,30.14,10.0,WSW,5.8,-,N/A,,Overcast,250,2012-03-01 01:53:00
9:53 PM,75.0,66.0,73,30.14,10.0,WSW,4.6,-,N/A,,Mostly Cloudy,240,2012-03-01 02:53:00
10:53 PM,75.0,66.9,76,30.14,10.0,Calm,Calm,-,N/A,,Overcast,0,2012-03-01 03:53:00
11:53 PM,73.9,66.9,79,30.13,10.0,Calm,Calm,-,N/A,,Clear,0,2012-03-01 04:53:00